Showing default

FLOCK 4BE 6, 60516

Orbit data source: Space-Track

FLOCK 4BE 6, 60516 is a payload satellite owned by Planet (US) in SSO that was launched on Fri, 16 Aug 2024 UTC via an FALCON 9 launch vehicle from the Air Force Western Test Range (AFWTR). Payload-class satellites include a variety of spacecraft equipped with specific instruments for various scientific and technological missions. These include communications satellites like Starlink; space stations such as the ISS; scientific satellites like the Hubble; Earth observation satellites from companies like Planet Labs, Umbra, and HawkEye 360; GPS; miniature CubeSats for education and research; and military/defense satellites.

Loading next visibility...
Identifier
60516, 2024-149BA
Orbit
SSO
Country
Flag of USUS
Related business
Manufacturer
Planet
Mission
Operational Commercial Imaging
Bus & Motor
CUBESAT 3U, Unknown motor
Mass
5.7 kg wet, 5.7 kg dry
Launch date (UTC)
2024-08-16 (1 year ago)
Launch vehicle
FALCON 9
Launch site
Air Force Western Test Range (AFWTR)
Object type
Payload
Rocket body
Debris
Shape & HBR
Box + 2 Pan, 1.0 m
Radar Cross Section
0.072 m², Medium (>0.1 m² and < 1m²)

Expand to show TLE details & history
Last TLE update: 20 hours ago

TLE from 20 hours ago
0 FLOCK 4BE 6
1 60516U 24149BA  26034.18778587  .00016002  00000-0  46727-3 0  9992
2 60516  97.3895 117.1286 0004532  68.9430 291.2298 15.35388997 81685
Epoch: 2026-02-03T04:30Z
TLE epoch observation values (Epoch: 2026-02-03T04:30:24.699Z)
Latitude
0.00002°
Longitude
-83.84663°
Altitude
461.756 km
Speed
7.636 km/s
True Right ascension
07h 48m 30s
True Declination
0° 00' 00"
Sunlit
Object was in full shadow at epoch
Visualization orbit readout
Latitude
Unknown
Longitude
Unknown
Altitude
Unknown
Speed
Unknown
Apparent Right ascension
Unknown
Apparent Declination
Unknown
Sunlit
N/A
Visualization observer readout
Local Sidereal Time
02:54:01
Azimuth
Unknown
Elevation
Unknown
Doppler factor
Unknown
Orbital elements
Apogee altitude
459.807 km
Perigee altitude
453.612 km
Semi-major axis
6,834.847 km
Eccentricity
0.00045
Inclination
97.3895°
RAAN
117.1286°
Arg. of periapsis
68.943°
True anomaly
291.18138°
Mean anomaly
291.2298°
Eccentric anomaly
291.20559°
Mean motion
3.84105 °/min
Orbital period
93.72 mins
BSTAR
0.00046727
Loading maneuver chart data...
Computing Atmospheric mass density...
Loading historical data...
Loading historical data...
Loading historical data...
Loading historical data...
Loading historical data...
Loading historical data...
Loading historical data...

Documentation

Showing up to 5 results
|